Location: Plum
(40.5000°N, 79.7500°W)
Time: 07:24:00
(UTC-05:00)

MOZ.5/SAFIR/RUBIN 5/SL-8 - Visible Passes

Search period start: 26 January 2015 00:00
Search period end: 05 February 2015 00:00
Orbit: 679 x 709 km, 97.8° (Epoch: 25 January)

Date Brightness Start Highest point End Pass type
(mag) Time Alt. Az. Time Alt. Az. Time Alt. Az.
26 Jan 6.8 03:52:53 10° ENE 03:53:33 11° ENE 03:53:33 11° ENE visible
26 Jan 3.6 05:26:35 10° S 05:31:13 79° WSW 05:32:16 53° NNW visible
26 Jan 5.7 19:02:59 10° N 19:07:05 29° WNW 19:11:06 10° SW visible
27 Jan 5.6 04:30:05 10° SE 04:33:56 27° ENE 04:34:16 27° ENE visible
27 Jan 4.5 06:07:26 10° SSW 06:11:31 29° W 06:12:59 24° WNW visible
27 Jan 3.8 18:05:04 10° NNE 18:09:46 73° E 18:14:30 10° S visible
27 Jan 6.7 19:44:50 10° NW 19:46:53 12° WNW 19:48:42 10° W visible
28 Jan 3.9 05:09:18 10° SSE 05:13:54 69° ENE 05:15:00 50° NNE visible
28 Jan 5.6 06:50:37 10° WSW 06:52:07 11° W 06:53:21 10° WNW visible
28 Jan 5.0 18:45:23 10° N 18:49:50 43° WNW 18:54:17 10° SW visible
29 Jan 6.2 04:13:35 10° ESE 04:16:43 19° ENE 04:17:02 19° ENE visible
29 Jan 4.0 05:49:39 10° S 05:54:04 44° W 05:55:45 31° NW visible
29 Jan 6.5 19:26:30 10° NNW 19:29:44 18° WNW 19:32:49 10° WSW visible
30 Jan 4.7 04:52:13 10° SE 04:56:37 46° ENE 04:57:48 37° NNE visible
30 Jan 5.2 06:31:27 10° SW 06:34:33 17° W 06:36:31 13° WNW visible
30 Jan 4.3 18:27:54 10° N 18:32:35 65° WNW 18:37:16 10° SSW visible
31 Jan 6.6 03:57:34 10° E 03:59:34 13° ENE 03:59:53 13° ENE visible
31 Jan 3.6 05:32:05 10° S 05:36:42 68° W 05:38:36 35° NNW visible
31 Jan 6.0 19:08:37 10° NNW 19:12:32 26° WNW 19:16:23 10° WSW visible
01 Feb 5.4 04:35:21 10° SE 04:39:22 31° ENE 04:40:42 26° NE visible
01 Feb 4.7 06:13:10 10° SSW 06:17:03 25° W 06:19:26 17° NW visible
01 Feb 3.8 18:10:32 10° NNE 18:15:17 85° ESE 18:20:02 10° SSW visible
01 Feb 6.9 19:51:02 10° NW 19:52:19 11° WNW 19:53:19 10° WNW visible
02 Feb 3.7 05:14:44 10° SSE 05:19:22 81° ENE 05:21:34 31° N visible
02 Feb 5.3 18:50:57 10° N 18:55:19 37° WNW 18:59:39 10° SW visible
03 Feb 6.0 04:18:43 10° ESE 04:22:10 22° ENE 04:23:45 18° NE visible
03 Feb 4.2 05:55:16 10° SSW 05:59:35 38° W 06:02:28 19° NW visible
03 Feb 6.6 19:32:15 10° NNW 19:35:10 16° WNW 19:37:55 10° W visible
04 Feb 4.4 04:57:35 10° SSE 05:02:04 53° ENE 05:04:43 24° N visible
04 Feb 5.3 06:37:25 10° SW 06:40:07 15° W 06:42:36 10° WNW visible
04 Feb 4.6 18:33:24 10° N 18:38:03 56° WNW 18:42:41 10° SSW visible
